SCP
0 0 0 0 0 0 0 0 1 1 2 2 2 2 2 2 2 2 1 1 1 0 0 0 0 0 0 0 0 0 0 0 0 0 0 0 0 0 0 0 0 0 0 0
0 0 0 0 0 0 1 1 1 2 2 3 3 2 2 2 1 1 1 1 0 0 0 0 0 0 0 0 0 0 0 0 0 0 0 0 0 0 0 0 0 0 0 0
0 0 0 0 1 1 1 1 1 2 2 2 2 1 1 1 1 0 0 0 0 0 0 0 0 0 0 0 0 0 0 0 0 0 0 0 0 0 0 0 0 0 0 0
0 0 0 0 0 1 1 1 1 1 1 1 1 0 0 0 0 0 0 0 0 0 0 0 0 0 0 0 0 0 0 0 0 0 0 0 0 0 0 0 0 0 0 0
0 0 0 0 0 0 1 1 1 1 0 0 0 0 0 0 0 0 0 0 0 0 0 0 0 0 0 0 0 0 0 0 0 0 0 0 0 0 0 0 0 0 0 0
0 0 0 0 0 0 0 0 0 0 0 0 0 0 0 0 0 0 0 0 0 0 0 0 0 0 0 0 0 0 0 0 0 0 0 0 0 0 0 0 0 0 0 0
0 0 0 0 0 0 0 0 0 0 0 0 0 0 0 0 0 0 0 0 0 0 0 0 0 0 0 0 0 0 0 0 0 0 0 0 0 0 0 0 0 0 0 0
0 0 0 0 0 0 0 0 0 0 0 0 0 0 0 0 0 0 0 0 0 0 0 0 0 0 0 0 0 0 0 0 0 0 0 0 0 0 0 0 0 0 0 0
0 0 0 0 0 0 0 0 0 0 0 0 0 0 0 0 0 0 0 0 0 0 0 0 0 0 0 0 0 0 0 0 0 0 0 0 0 0 0 0 0 0 0 0
0 0 0 0 0 0 0 0 0 0 0 0 0 0 0 0 0 0 0 0 0 0 0 0 0 0 0 0 0 0 0 0 0 0 0 0 0 0 0 0 0 0 0 0
0 0 0 0 0 0 0 0 0 0 0 0 0 0 0 0 0 0 0 0 0 0 0 0 0 0 0 0 0 0 0 0 0 0 0 0 0 0 0 0 0 0 0 0
0 0 0 0 0 0 0 0 0 0 0 0 0 0 0 0 0 0 0 0 0 0 0 0 0 0 0 0 0 0 0 0 0 0 0 0 0 0 0 0 0 0 0 0
0 0 0 0 0 0 0 0 0 0 0 0 0 0 0 0 0 0 0 0 0 0 0 0 0 0 0 0 0 0 0 0 0 0 0 0 0 0 0 0 0 0 0 0
0 0 0 0 0 0 0 0 0 0 0 0 0 0 0 0 0 0 0 0 0 0 0 0 0 0 0 0 0 0 0 0 0 0 0 0 0 0 0 0 0 0 0 0
0 0 0 0 0 0 0 0 0 0 0 0 0 0 0 0 0 0 0 0 0 0 0 0 0 0 0 0 0 0 0 0 0 0 0 0 0 0 0 0 0 0 0 0
0 0 0 0 0 0 0 0 0 0 0 0 0 0 0 0 0 0 0 0 0 0 0 0 0 0 0 0 0 0 0 0 0 0 0 0 0 0 0 0 0 0 0 0
0 0 0 0 0 0 0 0 0 0 0 0 0 0 0 0 0 0 0 0 0 0 0 0 0 0 0 0 0 0 0 0 0 0 0 0 0 0 0 0 0 0 0 0
0 0 0 0 0 0 0 0 0 0 0 0 0 0 0 0 0 0 0 0 0 0 0 0 0 0 0 0 0 0 0 0 0 0 0 0 0 0 0 0 0 0 0 0
0 0 0 0 0 0 0 0 0 0 0 0 0 0 0 0 0 0 0 0 0 0 0 0 0 0 0 0 0 0 0 0 0 0 0 0 0 0 0 0 0 0 0 0
0 0 0 0 0 0 0 0 0 0 0 0 0 0 0 0 0 0 0 0 0 0 0 0 0 0 0 0 0 0 0 0 0 0 0 0 0 0 0 0 0 0 0 0
0 0 0 0 0 0 0 0 0 0 0 0 0 0 0 0 0 0 0 0 0 0 0 0 0 0 0 0 0 0 0 0 0 0 0 0 0 0 0 0 0 0 0 0
0 0 0 0 0 0 0 0 0 0 0 0 0 0 0 0 0 0 0 0 0 0 0 0 0 0 0 0 0 0 0 0 0 0 0 0 0 0 0 0 0 0 0 0
0 0 0 0 0 0 0 0 0 0 0 0 0 0 0 0 0 0 0 0 0 0 0 0 0 0 0 0 0 0 0 0 0 0 0 0 0 0 0 0 0 0 0 0
0 0 0 0 0 0 0 0 0 0 0 0 0 0 0 0 0 0 0 0 0 0 0 0 0 0 0 0 0 0 0 0 0 0 0 0 0 0 0 0 0 0 0 0
0 0 0 0 0 0 0 0 0 0 0 0 0 0 0 0 0 0 0 0 0 0 0 0 0 0 0 0 0 0 0 0 0 0 0 0 0 0 0 0 0 0 0 0
0 0 0 0 0 0 0 0 0 0 0 0 0 0 0 0 0 0 0 0 0 0 0 0 0 0 0 0 0 0 0 0 0 0 0 0 0 0 0 0 0 0 0 0
0 0 0 0 0 0 0 0 0 0 0 0 0 0 0 0 0 0 0 0 0 0 0 0 0 0 0 0 0 0 0 0 0 0 0 0 0 0 0 0 0 0 0 0
Wind_Speed
0 2 4 5 7 4 2 4 7 8 8 4 5 7 8 9 10 10 10 9 9 8 8 8 8 8 9 9 8 9 10 10 8 7 7 7 7 6 6 6 5 5 6 5
6 7 6 6 8 4 5 5 12 14 9 6 7 8 10 9 9 10 9 9 9 9 9 8 8 9 9 9 8 9 9 8 7 7 7 7 6 5 5 5 5 5 5 3
3 6 5 7 8 6 8 6 7 6 8 10 10 11 9 8 8 9 8 8 9 8 8 8 8 8 9 8 8 9 8 7 7 6 6 6 5 5 5 5 5 4 3 2
1 4 2 1 7 14 15 13 11 13 12 11 12 11 10 8 7 8 8 8 8 8 9 9 8 8 8 8 8 8 7 6 5 5 5 5 5 5 4 3 3 2 2 1
3 1 1 2 5 2 6 8 7 10 12 13 14 11 8 7 7 7 8 8 8 8 8 8 8 7 8 7 6 6 5 4 4 4 5 4 4 3 2 2 2 1 1 1
3 2 2 1 7 3 10 5 2 5 8 10 8 3 4 5 7 8 8 7 8 8 8 8 6 6 7 6 5 4 4 3 3 4 4 4 3 2 2 2 1 2 2 3
3 2 1 4 8 4 4 3 1 3 5 5 3 5 9 9 8 8 8 8 7 7 6 5 4 5 5 4 3 3 3 3 3 3 3 3 3 2 3 3 3 3 4 4
1 2 3 6 5 4 3 2 4 5 6 10 12 12 11 10 9 8 8 7 6 6 5 3 3 4 4 3 2 3 3 3 3 3 3 4 4 3 4 4 4 4 4 4
2 3 0 3 4 2 3 4 3 4 8 12 12 11 11 9 8 7 6 5 4 5 4 2 2 3 3 2 2 2 2 3 3 3 3 4 4 4 3 3 3 3 3 3
3 3 2 4 5 5 4 4 5 7 9 11 13 12 10 8 7 5 4 4 3 3 3 2 1 1 1 1 2 2 3 3 3 3 3 3 3 3 3 2 2 2 3 4
4 4 4 4 4 5 6 7 9 9 10 11 13 12 9 7 6 5 3 3 3 3 3 2 1 1 1 2 3 3 3 3 3 3 3 2 2 2 2 1 2 1 1 3
5 6 5 4 3 6 7 8 9 11 11 9 10 10 8 6 5 4 4 3 3 3 3 3 3 3 2 2 4 4 3 3 2 2 2 2 2 1 1 2 2 0 2 4
4 5 6 7 6 6 7 8 9 9 10 10 8 7 7 5 4 4 4 4 4 4 4 4 3 2 2 2 4 4 3 2 2 2 2 2 2 2 1 2 3 3 5 7
8 9 7 5 6 7 9 10 9 9 8 8 7 6 6 5 5 5 5 5 5 5 5 4 3 1 1 3 3 3 3 3 3 2 2 2 2 2 1 1 1 3 4 7
5 6 8 8 8 8 9 9 10 9 8 7 6 6 6 6 5 5 5 6 6 5 4 3 2 0 1 2 3 3 2 2 2 2 2 2 2 2 2 2 1 2 3 5
8 10 11 11 10 10 10 10 9 8 7 6 5 6 6 6 6 6 6 7 7 5 3 2 1 1 0 1 1 1 1 3 3 2 2 2 3 3 2 2 1 2 3 4
11 10 11 11 10 10 10 9 8 7 6 6 6 7 8 8 8 7 6 6 6 4 3 2 1 2 1 1 1 1 1 2 4 3 2 3 3 2 2 2 1 2 2 4
9 10 10 11 10 10 10 9 8 8 7 7 8 8 9 9 8 7 6 5 5 4 3 2 3 4 4 3 1 1 3 3 3 3 2 3 3 2 2 2 2 2 2 3
9 10 9 10 10 10 9 8 8 7 7 8 9 9 8 7 7 6 5 5 5 2 3 4 6 5 4 4 4 3 4 4 4 3 3 4 3 2 2 2 2 1 2 3
9 10 10 10 10 9 9 8 8 7 7 8 9 8 7 6 6 6 6 4 2 2 0 3 5 5 5 4 5 4 5 5 4 3 3 3 3 2 2 2 2 2 2 3
10 11 12 11 10 9 9 9 9 8 8 9 8 8 7 6 6 6 5 3 1 1 3 5 4 4 3 4 5 4 5 5 4 3 3 3 3 3 3 2 2 2 2 3
9 11 11 10 10 8 7 8 8 9 8 7 8 8 7 6 6 5 3 3 2 3 3 3 3 5 7 7 4 4 4 4 4 3 3 3 3 3 3 3 2 2 2 3
10 10 10 10 10 8 8 7 8 8 7 7 8 8 7 6 5 5 3 1 2 4 4 2 5 9 9 6 4 5 5 4 4 3 3 3 3 3 3 3 3 3 3 3
10 10 9 9 8 8 7 6 7 6 7 7 7 8 8 5 3 2 3 4 4 4 3 3 6 8 7 4 4 5 4 4 4 3 4 4 4 4 4 4 4 4 4 5
10 9 8 9 8 6 6 6 6 5 6 5 6 6 6 6 5 4 3 3 4 3 2 3 5 6 4 3 4 4 4 4 4 4 4 4 4 4 4 4 4 4 4 4
9 7 7 7 6 5 5 5 4 4 5 5 4 4 4 4 5 4 3 3 2 1 1 2 3 5 4 4 4 4 3 4 5 4 4 4 5 5 5 5 6 5 4 4
9 7 5 5 4 5 5 5 4 4 5 6 5 5 5 5 4 4 4 2 2 1 1 2 3 4 4 4 4 4 4 4 4 4 4 4 4 5 5 6 5 4 4 5
Wind_Direction
326 330 353 340 339 355 44 153 143 136 118 96 73 75 73 77 82 85 86 89 93 91 90 89 86 82 82 80 79 84 84 82 77 71 66 63 60 56 54 57 66 75 85 92
2 357 0 3 353 22 50 99 126 122 112 108 91 79 70 69 79 82 85 88 95 96 96 94 93 92 88 84 81 81 80 77 74 68 65 65 62 57 58 57 63 74 81 84
342 335 17 6 353 70 67 47 132 130 128 126 94 72 60 56 69 77 82 85 91 93 90 87 84 88 89 87 84 80 78 74 71 70 67 65 69 63 63 64 69 74 73 73
49 34 51 66 55 79 74 50 65 94 112 113 103 84 62 54 68 75 80 85 87 91 92 89 88 85 86 84 84 83 79 74 73 76 76 73 73 68 65 69 75 73 59 37
104 121 260 47 17 13 104 63 57 103 120 129 128 103 69 54 68 78 83 87 89 92 95 93 90 89 89 84 84 88 86 81 84 90 90 87 79 69 61 68 58 45 27 1
115 142 224 319 327 1 107 94 39 126 147 164 175 135 122 104 95 91 90 92 95 94 93 91 88 90 92 90 88 91 91 90 93 104 105 97 84 62 44 64 57 32 15 1
137 175 249 319 319 8 116 155 66 118 144 149 129 118 125 120 106 100 97 95 94 93 93 94 95 94 94 97 103 112 107 99 100 114 114 101 78 56 51 47 39 26 16 2
136 184 241 331 25 69 135 113 96 102 110 114 114 116 119 118 115 110 105 96 93 93 90 89 95 97 96 105 126 124 112 99 98 109 112 102 84 60 51 53 43 22 13 358
154 175 126 35 79 79 115 114 111 120 128 128 124 124 123 121 119 116 111 105 98 102 97 83 90 107 116 161 161 133 113 113 111 96 84 92 91 79 59 50 46 19 8 350
101 110 91 67 64 55 74 97 109 124 130 129 126 128 126 124 123 122 119 120 115 105 102 95 99 120 168 189 154 132 134 137 128 114 98 85 88 96 89 66 46 19 359 338
108 136 104 63 71 88 88 97 105 110 119 126 127 130 130 130 136 138 136 133 125 120 119 119 101 86 93 104 111 115 126 132 138 140 137 121 111 127 132 162 170 152 313 309
189 187 156 155 138 119 117 119 122 120 116 120 127 131 133 136 143 143 140 134 126 124 121 113 103 90 80 93 107 113 114 129 144 147 148 143 134 87 206 196 200 245 326 328
147 131 121 128 127 121 121 124 127 126 128 129 130 133 135 138 146 143 139 140 140 137 132 123 109 93 86 96 103 113 128 138 140 142 144 152 157 163 240 303 292 305 323 339
119 112 113 128 135 131 127 127 124 121 124 128 131 133 133 134 137 140 145 147 139 128 124 123 119 122 137 114 106 110 121 134 139 148 145 141 141 143 129 94 2 333 329 343
128 124 132 132 128 127 128 128 125 125 127 127 131 133 135 134 135 137 134 124 115 114 119 120 117 186 187 130 122 128 127 130 133 137 131 129 116 106 97 86 51 359 346 345
125 121 129 133 136 134 134 133 131 134 134 133 132 133 130 123 115 110 111 112 109 110 107 93 68 275 183 126 146 147 153 154 140 132 118 115 110 107 101 86 53 18 4 351
137 143 146 145 144 141 142 141 139 139 135 134 133 123 113 105 99 97 98 101 107 110 102 81 1 342 23 88 172 187 171 153 135 119 124 129 126 122 119 104 62 18 359 2
149 152 153 151 147 144 142 140 139 138 139 139 128 120 117 116 118 121 118 105 90 67 31 7 6 8 10 12 30 129 127 129 124 126 127 122 123 124 117 104 81 47 1 354
144 147 148 145 143 141 141 143 144 142 137 129 125 126 129 132 135 134 122 109 102 78 333 352 20 34 17 12 47 90 104 108 108 112 114 113 108 109 115 111 92 53 17 4
140 142 141 138 137 137 139 141 137 132 131 127 124 124 126 130 129 124 120 124 165 200 296 34 36 26 11 16 54 91 100 105 109 110 103 102 105 106 109 109 95 60 28 14
135 135 135 135 137 137 137 135 131 131 133 131 131 136 136 134 128 122 118 116 284 35 57 49 40 12 8 42 71 89 96 99 100 102 103 102 96 93 93 93 94 80 45 28
133 132 133 131 129 129 131 130 131 133 132 131 132 131 129 128 125 119 124 156 175 110 88 65 42 41 55 61 67 79 89 95 94 92 93 97 99 97 94 91 81 72 62 45
131 132 131 132 132 132 130 131 135 136 139 140 139 139 138 142 142 135 144 206 148 112 99 83 71 65 64 61 63 70 79 87 92 93 91 91 95 100 98 90 79 72 63 48
129 130 131 130 125 124 130 138 137 140 144 144 146 143 138 129 122 145 158 159 146 117 97 86 78 80 82 79 71 70 72 80 86 88 85 80 82 85 86 83 78 72 65 59
133 131 130 129 130 138 146 141 131 131 132 132 134 138 142 145 149 166 165 164 150 111 74 70 88 98 100 98 89 81 78 86 96 95 89 87 84 82 80 80 80 77 69 60
135 137 138 141 143 143 140 134 133 138 131 127 126 132 133 134 139 146 157 177 180 130 83 66 91 101 104 102 99 94 87 84 83 85 94 92 86 83 83 82 80 75 69 62
132 131 128 127 137 141 139 139 142 147 143 139 140 147 147 147 153 166 176 187 189 149 107 105 112 110 105 98 92 88 85 83 85 91 96 95 91 88 87 87 82 76 69 63